Aérodrome :
LOGIN :

S'inscrire | Disclaimer

   EN    FR    IT 

 










Légende :    VFR   VFR Marginal   IFR   IFR Intensif   IFR Très Intensif
Visi : 
Plafond : 
>= 8 km
>= 3000ft
5 à 8 km
1000 à 3000 ft
1500m à 5 km
500 à 1000 ft
800 à 1500m
200 à 500 ft
< 800m
< 200 ft
Symboles :   Orages  Brouillard  Fortes neiges  Fortes précipitations  Vent > 20 kt
SIGMETs :   Divers  Orages  Givrage  Turbulence  Onde Orograph.  Cendres Volcan.







- Altitude de l'aérodrome : 219 ft
- Code IATA : DNR
- Voir les cartes d'approche


LFRD - Dinard

DERNIER METAR :
  • 180430Z AUTO 20004KT CAVOK 11/10 Q1024 TEMPO 3000 MIFG

METARs EXPIRÉS :
  • 180400Z AUTO 20005KT CAVOK 11/10 Q1024 TEMPO 3000 MIFG
  • 180330Z AUTO 22005KT CAVOK 12/11 Q1024 TEMPO 3000 MIFG
  • 180300Z AUTO 21005KT CAVOK 11/10 Q1024 TEMPO 3000 MIFG
  • 180230Z AUTO 23005KT CAVOK 11/11 Q1024 TEMPO 3000 MIFG
  • 180200Z AUTO 22005KT CAVOK 12/11 Q1024 TEMPO 3000 MIFG

TAF TAF LFRD
Valide du 18 à 00h jusqu'au 19 à 00h UTC


172300Z 1800/1824 VRB05KT 9999 SCT020
PROB40
TEMPO 1803/1806 3000 MIFG
TEMPO 1815/1820 36010KT
ATIS : +33 2 99 16 81 50
Pas de NOTAMs connus pour ce terrain.



MET'MAP, la Météo Aéronautique d'un coup d'oeil ! - Copyright ORBIFLY Décembre 2007 - Disclaimer

ORBIFLY MET'MAP TEAM :

Programmation & Développement : Alexandra Zaïnal
Conception & Développement : Baudouin d'Aumeries
Co-Programmation & Développement : Marc-Olivier Méhu
Soutien technique & logistique : Manuel Goepfert

Contact : metmap@orbifly.com




SOURCES & CREDITS :

   NOAA